Location: Unspecified
(50.7693°N, 0.0000°E)
Time: 10:49:08
(UTC+00:00)

Vanguard 2 - Pass Details

Date: 18 June 2019
Orbit: 553 x 2938 km, 32.9° (Epoch: 16 August)

Event Time Altitude Azimuth Distance (km) Brightness Sun altitude
Rises 13:02:10 0° 255° (WSW) 4,602 11.8 60.2°
Reaches altitude 10° 13:05:23 10° 244° (WSW) 3,946 11.7 59.9°
Maximum altitude 13:14:16 29° 190° (S) 3,448 11.9 59.2°
Drops below altitude 10° 13:26:27 10° 140° (SE) 5,484 12.1 58.0°
Sets 13:32:01 0° 131° (SE) 6,692 12.3 57.5°
